Airfield :
LOGIN :

Register | Disclaimer

   EN    FR    IT 

 










Legend :    VFR   Marginal VFR   IFR   Intensive IFR   Very Intensive IFR
Visi :
Ceiling :
>= 8 km
>= 3000ft
5 to 8 km
1000 to 3000 ft
1500m to 5 km
500 to 1000 ft
800 to 1500m
200 to 500 ft
< 800m
< 200 ft
Symbols :   Thunderstorms  Fog  Heavy snow  Heavy precipitations  Wind > 20 kt
SIGMETs :     Misc.  Thunderstorms  Icing  Turbulence  Mountain Waves  Volcanic Ashes






- Airport Elevation : 3360 ft
- IATA code : QSF


DAAS - 8 Mai 45

CURRENT METAR :
  • 311700Z 23027G47KT 6000 TS FEW026CB BKN030 34/M02 Q1017

EXPIRED METARs :
  • 311600Z 19003KT 9999 FEW026CB BKN030 35/03 Q1016
  • 311500Z 22012KT 9999 FEW026TCU SCT030 37/// Q1016

TAF TAF DAAS
Valid from the 31 at 18:00 until the 01 at 18:00 UTC


311700Z 3118/0118 22018KT 9999 FEW033 SCT100
TEMPO 3118/0106 FEW026CB
TEMPO 3118/3123 02020G35KT 5000 TSRA BKN030
BECMG 3120/3123 33008KT
PROB40
TEMPO 0106/0118 FEW023TCU
BECMG 0108/0111 23014KT



MET'MAP, your aeronautical weather chart ! - Copyright ORBIFLY December 2007 - Disclaimer

ORBIFLY MET'MAP TEAM :

Programming & Development : Alexandra Zaïnal
Concept & original design : Baudouin d'Aumeries
Assistance for programming : Marc-Olivier Méhu
Technical & hardware support : Manuel Goepfert

Contact : metmap@orbifly.com




SOURCES & CREDITS :

   NOAA